| time (UTC) | temp C | wind direction | speed KPH | gust KPH | rain 1hr cm | rain 24hr cm | rain mn cm | humidity % | barometer mb |
| 20260505063533 | 16 | 226 | 0.0 | 6.4 | 0.00 | 0.00 | 0.00 | 54 | 1018.9 |
| 20260505063031 | 16 | 198 | 3.2 | 6.4 | 0.00 | 0.00 | 0.00 | 54 | 1018.8 |
| 20260505062530 | 16 | 248 | 0.0 | 6.4 | 0.00 | 0.00 | 0.00 | 55 | 1018.8 |
| 20260505062027 | 16 | 273 | 3.2 | 6.4 | 0.00 | 0.00 | 0.00 | 57 | 1018.7 |
| 20260505061531 | 16 | 265 | 3.2 | 6.4 | 0.00 | 0.00 | 0.00 | 57 | 1018.7 |
| 20260505061029 | 15 | 264 | 1.6 | 4.8 | 0.00 | 0.00 | 0.00 | 58 | 1018.7 |
| 20260505060525 | 16 | 317 | 1.6 | 4.8 | 0.00 | 0.00 | 0.00 | 57 | 1018.6 |
| 20260505060025 | 15 | 281 | 1.6 | 4.8 | 0.00 | 0.00 | 0.00 | 58 | 1018.7 |
| 20260505055522 | 15 | 275 | 0.0 | 4.8 | 0.00 | 0.00 | 0.00 | 59 | 1018.8 |
| 20260505055021 | 15 | 275 | 0.0 | 4.8 | 0.00 | 0.00 | 0.00 | 60 | 1018.7 |
| 20260505054522 | 15 | 61 | 1.6 | 4.8 | 0.00 | 0.00 | 0.00 | 61 | 1018.8 |
| 20260505054018 | 14 | 344 | 1.6 | 4.8 | 0.00 | 0.00 | 0.00 | 63 | 1018.7 |
| 20260505053517 | 14 | 332 | 1.6 | 4.8 | 0.00 | 0.00 | 0.00 | 64 | 1018.8 |
| 20260505053022 | 14 | 331 | 0.0 | 4.8 | 0.00 | 0.00 | 0.00 | 65 | 1018.8 |
| 20260505052514 | 13 | 338 | 0.0 | 6.4 | 0.00 | 0.00 | 0.00 | 69 | 1018.8 |
| 20260505052015 | 13 | 340 | 3.2 | 6.4 | 0.00 | 0.00 | 0.00 | 70 | 1018.7 |
| 20260505051514 | 13 | 294 | 0.0 | 4.8 | 0.00 | 0.00 | 0.00 | 70 | 1018.7 |
| 20260505051010 | 13 | 304 | 0.0 | 4.8 | 0.00 | 0.00 | 0.00 | 71 | 1018.7 |
| 20260505050514 | 12 | 319 | 0.0 | 4.8 | 0.00 | 0.00 | 0.00 | 71 | 1018.7 |
| 20260505041601 | 9 | 39 | 3.2 | 8.0 | 0.00 | 0.00 | 0.00 | 79 | 1018.5 |
| 20260505041053 | 9 | 50 | 4.8 | 8.0 | 0.00 | 0.00 | 0.00 | 78 | 1018.5 |
| 20260505040552 | 9 | 355 | 1.6 | 8.0 | 0.00 | 0.00 | 0.00 | 79 | 1018.5 |
| 20260505040100 | 8 | 35 | 3.2 | 8.0 | 0.00 | 0.00 | 0.00 | 79 | 1018.4 |
| 20260505035548 | 8 | 42 | 1.6 | 6.4 | 0.00 | 0.00 | 0.00 | 79 | 1018.4 |
| 20260505035050 | 8 | 18 | 1.6 | 4.8 | 0.00 | 0.00 | 0.00 | 79 | 1018.4 |
| 20260505034547 | 9 | 15 | 1.6 | 4.8 | 0.00 | 0.00 | 0.00 | 79 | 1018.4 |
| 20260505034047 | 8 | 15 | 1.6 | 8.0 | 0.00 | 0.00 | 0.00 | 78 | 1018.4 |
| 20260505033547 | 9 | 11 | 3.2 | 8.0 | 0.00 | 0.00 | 0.00 | 79 | 1018.5 |
| 20260505033049 | 8 | 50 | 3.2 | 6.4 | 0.00 | 0.00 | 0.00 | 79 | 1018.5 |
| 20260505032546 | 8 | 50 | 1.6 | 4.8 | 0.00 | 0.00 | 0.00 | 79 | 1018.4 |
| 20260505032049 | 8 | 54 | 1.6 | 6.4 | 0.00 | 0.00 | 0.00 | 79 | 1018.4 |
| 20260505031550 | 8 | 46 | 3.2 | 8.0 | 0.00 | 0.00 | 0.00 | 80 | 1018.4 |
| 20260505031044 | 8 | 55 | 4.8 | 9.7 | 0.00 | 0.00 | 0.00 | 80 | 1018.4 |
| 20260505030543 | 8 | 21 | 4.8 | 9.7 | 0.00 | 0.00 | 0.00 | 79 | 1018.4 |
| 20260505030044 | 8 | 11 | 3.2 | 6.4 | 0.00 | 0.00 | 0.00 | 79 | 1018.5 |
| 20260505025543 | 8 | 65 | 1.6 | 6.4 | 0.00 | 0.00 | 0.00 | 79 | 1018.4 |
| 20260505025045 | 8 | 44 | 3.2 | 8.0 | 0.00 | 0.00 | 0.00 | 79 | 1018.4 |
| 20260505024541 | 8 | 50 | 4.8 | 8.0 | 0.00 | 0.00 | 0.00 | 78 | 1018.5 |
| 20260505024040 | 8 | 49 | 3.2 | 6.4 | 0.00 | 0.00 | 0.00 | 78 | 1018.5 |
| 20260505023543 | 8 | 50 | 3.2 | 8.0 | 0.00 | 0.00 | 0.00 | 79 | 1018.5 |
| 20260505023040 | 8 | 62 | 4.8 | 8.0 | 0.00 | 0.00 | 0.00 | 79 | 1018.6 |
| 20260505022539 | 8 | 57 | 4.8 | 8.0 | 0.00 | 0.00 | 0.00 | 79 | 1018.5 |
| 20260505022042 | 8 | 23 | 4.8 | 8.0 | 0.00 | 0.00 | 0.00 | 79 | 1018.6 |
| 20260505021540 | 8 | 32 | 4.8 | 8.0 | 0.00 | 0.00 | 0.00 | 79 | 1018.6 |
| 20260505021037 | 8 | 49 | 4.8 | 8.0 | 0.00 | 0.00 | 0.00 | 79 | 1018.6 |
| 20260505020537 | 8 | 22 | 3.2 | 8.0 | 0.00 | 0.00 | 0.00 | 78 | 1018.6 |
| 20260505020041 | 8 | 36 | 4.8 | 8.0 | 0.00 | 0.00 | 0.00 | 77 | 1018.6 |
| 20260505015537 | 8 | 26 | 4.8 | 8.0 | 0.00 | 0.00 | 0.00 | 77 | 1018.7 |
| 20260505015036 | 8 | 55 | 4.8 | 9.7 | 0.00 | 0.00 | 0.00 | 77 | 1018.7 |
| 20260505014541 | 8 | 46 | 6.4 | 14.5 | 0.00 | 0.00 | 0.00 | 77 | 1018.8 |
| 20260505014135 | 8 | 64 | 8.0 | 14.5 | 0.00 | 0.00 | 0.00 | 77 | 1018.8 |
| 20260505013534 | 8 | 32 | 6.4 | 9.7 | 0.00 | 0.00 | 0.00 | 77 | 1018.8 |
| 20260505013034 | 8 | 29 | 4.8 | 9.7 | 0.00 | 0.00 | 0.00 | 78 | 1018.8 |
| 20260505012534 | 8 | 60 | 6.4 | 11.3 | 0.00 | 0.00 | 0.00 | 78 | 1018.9 |
| 20260505012037 | 8 | 45 | 6.4 | 11.3 | 0.00 | 0.00 | 0.00 | 78 | 1018.8 |
| 20260505011537 | 8 | 31 | 8.0 | 12.9 | 0.00 | 0.00 | 0.00 | 78 | 1018.8 |
| 20260505011032 | 8 | 24 | 4.8 | 9.7 | 0.00 | 0.00 | 0.00 | 78 | 1018.8 |
| 20260505010535 | 8 | 28 | 8.0 | 11.3 | 0.00 | 0.00 | 0.00 | 78 | 1018.9 |
| 20260505010033 | 8 | 49 | 8.0 | 11.3 | 0.00 | 0.00 | 0.00 | 78 | 1018.9 |
| 20260505005532 | 8 | 51 | 6.4 | 9.7 | 0.00 | 0.00 | 0.00 | 78 | 1019.0 |
| 20260505005031 | 8 | 24 | 8.0 | 9.7 | 0.00 | 0.00 | 0.00 | 78 | 1019.0 |
| 20260505004531 | 8 | 44 | 8.0 | 9.7 | 0.00 | 0.00 | 0.00 | 77 | 1019.0 |
| 20260505004030 | 8 | 32 | 4.8 | 8.0 | 0.00 | 0.00 | 0.00 | 77 | 1018.9 |
| 20260505003529 | 8 | 44 | 4.8 | 8.0 | 0.00 | 0.00 | 0.00 | 78 | 1019.0 |
| 20260505003029 | 8 | 49 | 4.8 | 8.0 | 0.00 | 0.00 | 0.00 | 78 | 1019.0 |
| 20260505002529 | 8 | 46 | 4.8 | 9.7 | 0.00 | 0.00 | 0.00 | 78 | 1019.2 |
| 20260505002028 | 8 | 35 | 6.4 | 9.7 | 0.00 | 0.00 | 0.00 | 78 | 1019.2 |
| 20260505001527 | 8 | 45 | 6.4 | 9.7 | 0.00 | 0.00 | 0.00 | 78 | 1019.2 |
| 20260505001026 | 8 | 53 | 4.8 | 9.7 | 0.00 | 0.00 | 0.00 | 79 | 1019.3 |
| 20260505000526 | 8 | 43 | 6.4 | 9.7 | 0.00 | 0.00 | 0.00 | 79 | 1019.3 |
| 20260505000040 | 8 | 30 | 6.4 | 8.0 | 0.00 | 0.00 | 0.00 | 79 | 1019.3 |
| 20260504235525 | 8 | 26 | 4.8 | 9.7 | 0.00 | 0.00 | 0.00 | 79 | 1019.4 |
| 20260504235024 | 8 | 32 | 6.4 | 9.7 | 0.00 | 0.00 | 0.00 | 78 | 1019.4 |
| 20260504234525 | 8 | 36 | 4.8 | 6.4 | 0.00 | 0.00 | 0.00 | 78 | 1019.5 |
| 20260504234022 | 8 | 32 | 4.8 | 8.0 | 0.00 | 0.00 | 0.00 | 77 | 1019.5 |
| 20260504233521 | 8 | 28 | 4.8 | 8.0 | 0.00 | 0.00 | 0.00 | 76 | 1019.5 |
| 20260504233020 | 8 | 37 | 4.8 | 8.0 | 0.00 | 0.00 | 0.00 | 76 | 1019.6 |
| 20260504232521 | 8 | 46 | 3.2 | 8.0 | 0.00 | 0.00 | 0.00 | 76 | 1019.6 |
| 20260504232022 | 8 | 44 | 4.8 | 9.7 | 0.00 | 0.00 | 0.00 | 76 | 1019.6 |
| 20260504231518 | 8 | 37 | 6.4 | 9.7 | 0.00 | 0.00 | 0.00 | 75 | 1019.6 |
| 20260504231019 | 9 | 13 | 6.4 | 8.0 | 0.00 | 0.00 | 0.00 | 74 | 1019.7 |
| 20260504230516 | 9 | 67 | 3.2 | 8.0 | 0.00 | 0.00 | 0.00 | 75 | 1019.7 |
| 20260504230016 | 9 | 51 | 4.8 | 9.7 | 0.00 | 0.00 | 0.00 | 75 | 1019.8 |
| 20260504225517 | 9 | 42 | 6.4 | 9.7 | 0.00 | 0.00 | 0.00 | 75 | 1019.9 |
| 20260504225014 | 9 | 51 | 6.4 | 9.7 | 0.00 | 0.00 | 0.00 | 75 | 1020.0 |
| 20260504224517 | 8 | 34 | 6.4 | 9.7 | 0.00 | 0.00 | 0.00 | 74 | 1020.0 |
| 20260504224018 | 9 | 20 | 6.4 | 8.0 | 0.00 | 0.00 | 0.00 | 74 | 1020.0 |
| 20260504223512 | 9 | 48 | 4.8 | 6.4 | 0.00 | 0.00 | 0.00 | 73 | 1020.1 |
| 20260504223011 | 9 | 52 | 3.2 | 8.0 | 0.00 | 0.00 | 0.00 | 73 | 1020.1 |
| 20260504222510 | 9 | 54 | 3.2 | 8.0 | 0.00 | 0.00 | 0.00 | 73 | 1020.2 |
| 20260504222010 | 9 | 20 | 6.4 | 8.0 | 0.00 | 0.00 | 0.00 | 72 | 1020.1 |
| 20260504221509 | 10 | 66 | 3.2 | 8.0 | 0.00 | 0.00 | 0.00 | 72 | 1020.1 |
| 20260504221008 | 10 | 38 | 3.2 | 8.0 | 0.00 | 0.00 | 0.00 | 71 | 1020.1 |
| 20260504220508 | 10 | 36 | 4.8 | 14.5 | 0.00 | 0.00 | 0.00 | 71 | 1020.1 |
| 20260504220023 | 10 | 67 | 6.4 | 14.5 | 0.00 | 0.00 | 0.00 | 71 | 1020.3 |
| 20260504215510 | 10 | 29 | 6.4 | 11.3 | 0.00 | 0.00 | 0.00 | 71 | 1020.2 |
| 20260504215010 | 9 | 44 | 8.0 | 11.3 | 0.00 | 0.00 | 0.00 | 70 | 1020.3 |
| 20260504214506 | 10 | 15 | 4.8 | 8.0 | 0.00 | 0.00 | 0.00 | 69 | 1020.4 |
| 20260504214005 | 10 | 30 | 3.2 | 8.0 | 0.00 | 0.00 | 0.00 | 68 | 1020.1 |
| 20260504213505 | 10 | 74 | 3.2 | 9.7 | 0.00 | 0.00 | 0.00 | 69 | 1020.2 |
| 20260504213008 | 10 | 37 | 4.8 | 9.7 | 0.00 | 0.00 | 0.00 | 69 | 1020.2 |
| 20260504212503 | 10 | 39 | 6.4 | 9.7 | 0.00 | 0.00 | 0.00 | 67 | 1020.1 |
| 20260504212001 | 10 | 28 | 4.8 | 8.0 | 0.00 | 0.00 | 0.00 | 66 | 1020.1 |
| 20260504211501 | 10 | 38 | 4.8 | 8.0 | 0.00 | 0.00 | 0.00 | 65 | 1020.0 |
| 20260504211059 | 10 | 43 | 4.8 | 8.0 | 0.00 | 0.00 | 0.00 | 64 | 1020.0 |
| 20260504210600 | 10 | 35 | 4.8 | 9.7 | 0.00 | 0.00 | 0.00 | 64 | 1020.1 |
| 20260504210104 | 10 | 43 | 4.8 | 12.9 | 0.00 | 0.00 | 0.00 | 64 | 1020.1 |
| 20260504205559 | 10 | 55 | 8.0 | 12.9 | 0.00 | 0.00 | 0.00 | 64 | 1020.2 |
| 20260504205059 | 10 | 36 | 6.4 | 11.3 | 0.00 | 0.00 | 0.00 | 64 | 1020.1 |
| 20260504204604 | 10 | 42 | 6.4 | 12.9 | 0.00 | 0.00 | 0.00 | 64 | 1020.1 |
| 20260504204059 | 11 | 35 | 4.8 | 9.7 | 0.00 | 0.00 | 0.00 | 65 | 1020.1 |
| 20260504203557 | 11 | 27 | 4.8 | 8.0 | 0.00 | 0.00 | 0.00 | 64 | 1020.2 |
| 20260504203058 | 11 | 59 | 3.2 | 8.0 | 0.00 | 0.00 | 0.00 | 66 | 1020.3 |
| 20260504202557 | 11 | 39 | 3.2 | 6.4 | 0.00 | 0.00 | 0.00 | 67 | 1020.2 |
| 20260504202057 | 12 | 24 | 4.8 | 8.0 | 0.00 | 0.00 | 0.00 | 65 | 1020.3 |
| 20260504201557 | 12 | 20 | 3.2 | 8.0 | 0.00 | 0.00 | 0.00 | 65 | 1020.4 |
| 20260504201056 | 13 | 355 | 0.0 | 3.2 | 0.00 | 0.00 | 0.00 | 67 | 1020.4 |
| 20260504200556 | 13 | 351 | 1.6 | 6.4 | 0.00 | 0.00 | 0.00 | 65 | 1020.4 |
| 20260504200056 | 13 | 355 | 3.2 | 6.4 | 0.00 | 0.00 | 0.00 | 64 | 1020.5 |
| 20260504195555 | 13 | 285 | 0.0 | 4.8 | 0.00 | 0.00 | 0.00 | 65 | 1020.5 |
| 20260504195055 | 14 | 267 | 0.0 | 4.8 | 0.00 | 0.00 | 0.00 | 64 | 1020.4 |
| 20260504194559 | 14 | 268 | 1.6 | 4.8 | 0.00 | 0.00 | 0.00 | 64 | 1020.4 |
| 20260504194055 | 14 | 267 | 0.0 | 4.8 | 0.00 | 0.00 | 0.00 | 64 | 1020.4 |
| 20260504193555 | 14 | 267 | 1.6 | 4.8 | 0.00 | 0.00 | 0.00 | 64 | 1020.4 |
| 20260504193111 | 14 | 266 | 0.0 | 6.4 | 0.00 | 0.00 | 0.00 | 64 | 1020.4 |
| 20260504192556 | 14 | 262 | 1.6 | 8.0 | 0.00 | 0.00 | 0.00 | 63 | 1020.3 |
| 20260504192059 | 14 | 255 | 4.8 | 8.0 | 0.00 | 0.00 | 0.00 | 63 | 1020.2 |
| 20260504191555 | 14 | 252 | 3.2 | 6.4 | 0.00 | 0.00 | 0.00 | 63 | 1020.1 |
| 20260504191054 | 14 | 219 | 3.2 | 4.8 | 0.00 | 0.00 | 0.00 | 63 | 1020.2 |
| 20260504190554 | 14 | 231 | 0.0 | 4.8 | 0.00 | 0.00 | 0.00 | 62 | 1020.2 |
| 20260504190106 | 15 | 232 | 1.6 | 14.5 | 0.00 | 0.00 | 0.00 | 62 | 1020.1 |
| 20260504185553 | 15 | 250 | 4.8 | 16.1 | 0.00 | 0.00 | 0.00 | 62 | 1020.0 |
| 20260504185053 | 15 | 255 | 8.0 | 12.9 | 0.00 | 0.00 | 0.00 | 62 | 1019.9 |
| 20260504184554 | 15 | 234 | 6.4 | 12.9 | 0.00 | 0.00 | 0.00 | 62 | 1019.9 |
| 20260504184057 | 15 | 210 | 6.4 | 11.3 | 0.00 | 0.00 | 0.00 | 61 | 1019.9 |
| 20260504183554 | 15 | 207 | 1.6 | 6.4 | 0.00 | 0.00 | 0.00 | 61 | 1020.0 |
| 20260504183100 | 15 | 239 | 3.2 | 8.0 | 0.00 | 0.00 | 0.00 | 61 | 1020.0 |
| 20260504182553 | 15 | 240 | 4.8 | 9.7 | 0.00 | 0.00 | 0.00 | 61 | 1019.9 |
| 20260504182053 | 15 | 216 | 4.8 | 9.7 | 0.00 | 0.00 | 0.00 | 61 | 1019.9 |
| 20260504181553 | 15 | 228 | 4.8 | 9.7 | 0.00 | 0.00 | 0.00 | 61 | 1019.9 |
| 20260504181155 | 15 | 250 | 4.8 | 11.3 | 0.00 | 0.00 | 0.00 | 61 | 1019.9 |
| 20260504180552 | 15 | 201 | 4.8 | 9.7 | 0.00 | 0.00 | 0.00 | 61 | 1019.7 |
| 20260504180130 | 15 | 265 | 6.4 | 9.7 | 0.00 | 0.00 | 0.00 | 60 | 1019.6 |
| 20260504175551 | 15 | 190 | 1.6 | 8.0 | 0.00 | 0.00 | 0.00 | 60 | 1019.6 |
| 20260504175051 | 15 | 246 | 6.4 | 8.0 | 0.00 | 0.00 | 0.00 | 60 | 1019.5 |
| 20260504174551 | 15 | 248 | 4.8 | 11.3 | 0.00 | 0.00 | 0.00 | 60 | 1019.6 |
| 20260504174050 | 15 | 242 | 6.4 | 11.3 | 0.00 | 0.00 | 0.00 | 59 | 1019.6 |
| 20260504173551 | 15 | 266 | 4.8 | 11.3 | 0.00 | 0.00 | 0.00 | 59 | 1019.6 |
| 20260504173050 | 15 | 264 | 4.8 | 12.9 | 0.00 | 0.00 | 0.00 | 58 | 1019.5 |
| 20260504172550 | 16 | 278 | 6.4 | 12.9 | 0.00 | 0.00 | 0.00 | 58 | 1019.5 |
| 20260504172051 | 16 | 269 | 3.2 | 11.3 | 0.00 | 0.00 | 0.00 | 57 | 1019.3 |
| 20260504171551 | 16 | 271 | 4.8 | 14.5 | 0.00 | 0.00 | 0.00 | 55 | 1019.4 |
| 20260504171049 | 16 | 261 | 8.0 | 14.5 | 0.00 | 0.00 | 0.00 | 53 | 1019.4 |
| 20260504170548 | 17 | 261 | 6.4 | 16.1 | 0.00 | 0.00 | 0.00 | 39 | 1019.4 |
| 20260504151042 | 18 | 350 | 19.3 | 27.4 | 0.00 | 0.00 | 0.00 | 31 | 1019.5 |
| 20260504150545 | 18 | 348 | 12.9 | 22.5 | 0.00 | 0.00 | 0.00 | 30 | 1019.4 |
| 20260504141039 | 18 | 13 | 19.3 | 38.6 | 0.00 | 0.00 | 0.00 | 27 | 1019.4 |
| 20260504140538 | 19 | 11 | 19.3 | 32.2 | 0.00 | 0.00 | 0.00 | 27 | 1019.5 |
| 20260504130527 | 19 | 329 | 14.5 | 24.1 | 0.00 | 0.00 | 0.00 | 33 | 1019.6 |
| 20260504110507 | 17 | 42 | 12.9 | 24.1 | 0.00 | 0.00 | 0.00 | 37 | 1021.0 |
| 20260504100557 | 17 | 12 | 19.3 | 29.0 | 0.00 | 0.00 | 0.00 | 39 | 1021.4 |
| 20260504100116 | 17 | 346 | 14.5 | 25.7 | 0.00 | 0.00 | 0.00 | 40 | 1021.4 |
| 20260504081526 | 15 | 12 | 9.7 | 22.5 | 0.00 | 0.00 | 0.00 | 44 | 1021.4 |
| 20260504081027 | 15 | 344 | 11.3 | 20.9 | 0.00 | 0.00 | 0.00 | 45 | 1021.4 |
| 20260504080525 | 15 | 335 | 11.3 | 20.9 | 0.00 | 0.00 | 0.00 | 44 | 1021.3 |